Regional Weather Roundup
Issued by NWS

Home | Current Version | Previous Version | Graphics & Text | Print | Product List | Glossary On
Versions: 1 2 3 4 5 6 7 8 9 10 11 12 13 14 15 16 17 18 19 20 21 22 23 24 25 26 27 28 29 30 31 32 33 34 35 36 37 38 39 40 41 42 43 44 45 46 47 48 49 50
954
ASUS43 KFSD 201010
RWRSD

WEATHER ROUNDUP FOR SOUTH DAKOTA
NATIONAL WEATHER SERVICE SIOUX FALLS SD
400 AM CST MON FEB 20 2017

NOTE: "FAIR" INDICATES FEW OR NO CLOUDS BELOW 12,000 FEET WITH NO
SIGNIFICANT WEATHER AND/OR OBSTRUCTIONS TO VISIBILITY.


SDZ001>005-009-010-012>017-201100-
NORTHWEST AND NORTH CENTRAL SOUTH DAKOTA

CITY           SKY/WX    TMP DP  RH WIND       PRES   REMARKS
BUFFALO          N/A     45  36  70 W18       29.58R
FAITH            N/A     42  39  89 NW13      29.59R
MOBRIDGE       CLOUDY    41  34  76 SE8       29.51R
$$

SDZ012>016-024>037-041>051-057-063-072>074-201100-
SOUTHWEST AND SOUTH CENTRAL SOUTH DAKOTA

CITY           SKY/WX    TMP DP  RH WIND       PRES   REMARKS
RAPID CTY ARPT CLOUDY    48  36  63 NW22      29.64R
PIERRE         PTCLDY    46  40  79 CALM      29.50F
CUSTER         CLOUDY    41  30  65 N8        29.67R
ELLSWORTH AFB  CLOUDY    48  37  64 NW22G30   29.63S
PHILIP         CLOUDY    47  37  68 W13       29.56S
PINE RIDGE     CLOUDY    48  36  63 W14       29.65R
SPEARFISH      LGT RAIN  43  37  81 NW12      29.71R
WINNER         FAIR      56  49  77 SW16      29.56S
$$

SDZ004>011-016>023-039-040-201100-
NORTHEAST SOUTH DAKOTA

CITY           SKY/WX    TMP DP  RH WIND       PRES   REMARKS
ABERDEEN       CLOUDY    50  45  83 SE10      29.57S
WATERTOWN      CLOUDY    47  46  97 S13       29.63F
BROOKINGS      CLOUDY    50  48  93 S14       29.69R
SISSETON         N/A     53  49  86 S21       29.60F
$$

SDZ017-020-022-023-036>040-048>070-201100-
SOUTHEAST SOUTH DAKOTA

CITY           SKY/WX    TMP DP  RH WIND       PRES   REMARKS
SIOUX FALLS    CLOUDY    54  52  93 S9        29.72R
HURON          CLOUDY    52  50  93 S14       29.59F
CHAMBERLAIN    CLOUDY    55  51  85 CALM      29.57F
MITCHELL       CLOUDY    52  50  93 S15       29.63F
YANKTON        CLOUDY    52  46  82 E8        29.69S
$$

ABBREVIATIONS USED IN REMARKS
   TC - TEMPERATURE IN CELSIUS
  WCI - WIND CHILL INDEX
   HX - HEAT INDEX
  VSB - VISIBILITY





USA.gov is the U.S. government's official web portal to all federal, state and local government web resources and services.